Location: La Pernelle
(49.6188°N, 1.2999°W)
Time: 15:13:18
(UTC+00:00)

Cosmos 1470 - Pass Details

Date: 12 June 2021
Orbit: 519 x 543 km, 82.5° (Epoch: 04 August)

Event Time Altitude Azimuth Distance (km) Brightness Sun altitude
Rises 20:47:29 0° 353° (N) 2,721 7.3 -5.0°
Reaches altitude 10° 20:49:42 10° 358° (N) 1,823 6.3 -5.2°
Maximum altitude 20:53:39 55° 77° (ENE) 659 3.1 -5.7°
Drops below altitude 10° 20:57:32 10° 156° (SSE) 1,802 4.8 -6.1°
Enters shadow 20:58:17 - 158° (SSE) 2,102 5.2 -6.2°
